Flag for U.S.A. Weather past 2 weeks in Boston, Massachusetts, U.S.A.

Now
72 °F

Scattered clouds.


Feels Like: 77 °F
Forecast: 54 / 70 °F
Wind: 6 mph from Southeast

Location: Logan International Airport

Current Time: Sep 18, 2014 at 2:29:30 PM

Latest Report: Sep 18, 2014 at 1:54 PM


Visibility: 10 mi

Pressure: 29.95 "Hg

Humidity: 41%

Dew point: 47 °F

Location of BostonLocation

Historic Weather in Boston — Graph

°F

Boston temperature yesterday

Maximum temperature yesterday: 68 °F (at 12:54 PM)
Minimum temperature yesterday: 54 °F (at 5:54 AM)
Average temperature yesterday: 62 °F

Past Weeks' High & Low Weather Summary

 TemperatureHumidityPressure
High91 °F (Sep 6, 12:54 PM)97% (Sep 11, 1:54 AM)30.39 "Hg (Sep 11, 1:54 AM)
Low48 °F (Sep 15, 4:54 AM)36% (Sep 3, 4:54 PM)29.74 "Hg (Sep 6, 5:54 PM)
Average66 °F69%30.09 "Hg
* Reported Sep 3 12:54 PM — Sep 18 12:54 PM, Boston, Weather by CustomWeather, © 2014

Note: Actual official high and low records may vary slightly from our data, if they occured in-between our weather recording intervals... More about our weather records

Advertising

Boston weather history for previous 24 hours

 ConditionsComfort  
Time TempWeatherWind HumidityBarometerVisibility
12:54 PM
Sep 18
73 °FScattered clouds.6 mph37%29.96 "Hg10 mi
11:54 AM72 °FPassing clouds.7 mph40%29.96 "Hg10 mi
10:54 AM68 °FPassing clouds.5 mph45%29.97 "Hg10 mi
9:54 AM67 °FPassing clouds.8 mph47%29.98 "Hg10 mi
8:54 AM62 °FPassing clouds.8 mph56%29.98 "Hg10 mi
7:54 AM58 °FPassing clouds.8 mph65%29.97 "Hg10 mi
6:54 AM57 °FPassing clouds.7 mph67%29.96 "Hg10 mi
5:54 AM56 °FClear.7 mph70%29.95 "Hg10 mi
4:54 AM56 °FClear.7 mph70%29.94 "Hg10 mi
3:54 AM56 °FClear.7 mph72%29.93 "Hg10 mi
2:54 AM57 °FClear.6 mph69%29.94 "Hg10 mi
1:54 AM57 °FClear.No wind67%29.95 "Hg10 mi
12:54 AM59 °FClear.3 mph64%29.95 "Hg10 mi
11:54 PM
Sep 17
58 °FClear.5 mph70%29.96 "Hg10 mi
10:54 PM60 °FClear.3 mph75%29.96 "Hg10 mi
9:54 PM63 °FClear.3 mph50%29.97 "Hg10 mi
8:54 PM61 °FClear.5 mph67%29.97 "Hg10 mi
7:54 PM63 °FPassing clouds.5 mph63%29.97 "Hg10 mi
6:54 PM63 °FScattered clouds.8 mph65%29.96 "Hg10 mi
5:54 PM64 °FPassing clouds.8 mph63%29.94 "Hg10 mi
4:54 PM66 °FPassing clouds.12 mph56%29.93 "Hg10 mi
3:54 PM66 °FPassing clouds.14 mph63%29.94 "Hg10 mi
2:54 PM67 °FPassing clouds.14 mph55%29.94 "Hg10 mi
Weather by CustomWeather, © 2014

See weather overviewHow to use our weather pages